Location: Killam
(52.7910°N, 111.8608°W)
Time: 11:39:36
(UTC+00:00)

AO-73 - Pass Details

Date: 15 March 2026
Orbit: 514 x 567 km, 97.8° (Epoch: 13 April)

Event Time Altitude Azimuth Distance (km) Brightness Sun altitude
Rises 10:27:55 0° 24° (NNE) 2,678 ? -28.1°
Maximum altitude 10:33:27 22° 93° (E) 1,161 ? -27.5°
Enters shadow 10:34:09 21° 110° (ESE) 1,199 ? -27.4°
